When you browse on this site, cookies collect data to enhance your experience and personalize the content and advertising you see.
Visit our Privacy Policy to learn more. By continuing to use the site, you agree to this use of cookies and data.
  • In Hungary
  • List of Countries
  • For 7 days
  • Water Temperature
  • Satellite Maps
  • Weather Map
  • News
  • Weather Widgets
  • user-avatar
    Login

    Hourly Weather Snegirevo

    Today, 21 May, Tuesday

    Time Temperature Precipitation Wind Pressure Humidity
    00:00 +14°C° 0.2 mm 1 mps 748 mmHg 83%
    01:00 +13°C° 0.2 mm 1 mps 748 mmHg 86%
    02:00 +13°C° 0.2 mm 1 mps 748 mmHg 90%
    03:00 +14°C° 0.1 mm 1 mps 748 mmHg 90%
    04:00 +14°C° 0.1 mm 1 mps 748 mmHg 89%
    05:00 +14°C° 0.1 mm 1 mps 748 mmHg 89%
    06:00 +16°C° 0 mm 1 mps 748 mmHg 84%
    07:00 +18°C° 0 mm 2 mps 747 mmHg 78%
    08:00 +19°C° 0 mm 2 mps 747 mmHg 73%
    09:00 +21°C° 0.1 mm 2 mps 747 mmHg 64%
    10:00 +22°C° 0.1 mm 3 mps 747 mmHg 54%
    11:00 +25°C° 0.1 mm 3 mps 746 mmHg 45%
    12:00 +25°C° 0 mm 3 mps 746 mmHg 44%
    13:00 +26°C° 0 mm 4 mps 746 mmHg 43%
    14:00 +26°C° 0 mm 4 mps 745 mmHg 42%
    15:00 +25°C° 0 mm 3 mps 745 mmHg 46%
    16:00 +25°C° 0 mm 3 mps 744 mmHg 50%
    17:00 +24°C° 0 mm 2 mps 744 mmHg 55%
    18:00 +23°C° 0 mm 2 mps 744 mmHg 60%
    19:00 +20°C° 0 mm 2 mps 744 mmHg 66%
    20:00 +19°C° 0 mm 2 mps 744 mmHg 72%
    21:00 +18°C° 0 mm 2 mps 743 mmHg 73%
    22:00 +17°C° 0 mm 2 mps 743 mmHg 75%
    23:00 +16°C° 0 mm 2 mps 743 mmHg 76%

    Tomorrow, 22 May, Wednesday

    Time Temperature Precipitation Wind Pressure Humidity
    00:00 +15°C° 0 mm 2 mps 743 mmHg 76%
    01:00 +14°C° 0 mm 2 mps 743 mmHg 77%
    02:00 +14°C° 0 mm 2 mps 743 mmHg 78%
    03:00 +14°C° 0 mm 2 mps 743 mmHg 78%
    04:00 +14°C° 0 mm 2 mps 742 mmHg 77%
    05:00 +15°C° 0 mm 2 mps 742 mmHg 77%
    06:00 +16°C° 0.1 mm 2 mps 742 mmHg 76%
    07:00 +17°C° 0.1 mm 2 mps 742 mmHg 74%
    08:00 +19°C° 0.1 mm 1 mps 742 mmHg 72%
    09:00 +20°C° 0.4 mm 1 mps 742 mmHg 74%
    10:00 +20°C° 0.4 mm 1 mps 741 mmHg 75%
    11:00 +18°C° 0.4 mm 0 mps 741 mmHg 76%
    12:00 +21°C° 0.1 mm 1 mps 740 mmHg 73%
    13:00 +21°C° 0.1 mm 1 mps 740 mmHg 70%
    14:00 +22°C° 0.1 mm 1 mps 740 mmHg 67%
    15:00 +23°C° 0 mm 1 mps 739 mmHg 65%
    16:00 +23°C° 0 mm 1 mps 739 mmHg 63%
    17:00 +23°C° 0 mm 1 mps 739 mmHg 61%
    18:00 +22°C° 0.2 mm 1 mps 738 mmHg 68%
    19:00 +20°C° 0.2 mm 1 mps 738 mmHg 75%
    20:00 +16°C° 0.2 mm 0 mps 738 mmHg 81%
    21:00 +18°C° 0 mm 1 mps 738 mmHg 83%
    22:00 +16°C° 0 mm 1 mps 738 mmHg 85%
    23:00 +16°C° 0 mm 1 mps 738 mmHg 87%

    Day after tomorrow, 23 May, Thursday

    Time Temperature Precipitation Wind Pressure Humidity
    00:00 +15°C° 0 mm 1 mps 738 mmHg 89%
    01:00 +15°C° 0 mm 2 mps 737 mmHg 90%
    02:00 +15°C° 0 mm 2 mps 737 mmHg 92%
    03:00 +15°C° 0 mm 2 mps 737 mmHg 92%
    04:00 +15°C° 0 mm 2 mps 737 mmHg 91%
    05:00 +16°C° 0 mm 2 mps 738 mmHg 91%
    06:00 +16°C° 0.2 mm 2 mps 738 mmHg 90%
    07:00 +17°C° 0.2 mm 2 mps 738 mmHg 88%
    08:00 +18°C° 0.2 mm 3 mps 738 mmHg 87%
    09:00 +18°C° 0 mm 3 mps 738 mmHg 86%
    10:00 +17°C° 0 mm 3 mps 739 mmHg 85%
    11:00 +17°C° 0 mm 3 mps 739 mmHg 84%
    12:00 +17°C° 0 mm 3 mps 739 mmHg 79%
    13:00 +18°C° 0 mm 3 mps 739 mmHg 75%
    14:00 +18°C° 0 mm 3 mps 739 mmHg 70%
    15:00 +19°C° 0 mm 3 mps 740 mmHg 66%
    16:00 +20°C° 0 mm 3 mps 740 mmHg 63%
    17:00 +20°C° 0 mm 3 mps 740 mmHg 59%
    18:00 +18°C° 0 mm 3 mps 740 mmHg 64%
    19:00 +16°C° 0 mm 3 mps 740 mmHg 68%
    20:00 +13°C° 0 mm 3 mps 740 mmHg 73%
    21:00 +13°C° 0 mm 2 mps 741 mmHg 73%
    22:00 +12°C° 0 mm 2 mps 741 mmHg 73%
    23:00 +10°C° 0 mm 2 mps 742 mmHg 73%

    24 May, Friday

    Time Temperature Precipitation Wind Pressure Humidity
    00:00 +9°C° 0 mm 2 mps 742 mmHg 71%
    01:00 +8°C° 0 mm 2 mps 742 mmHg 70%
    02:00 +7°C° 0 mm 2 mps 742 mmHg 68%
    03:00 +8°C° 0 mm 2 mps 742 mmHg 69%
    04:00 +8°C° 0 mm 2 mps 742 mmHg 71%
    05:00 +8°C° 0 mm 3 mps 742 mmHg 72%
    06:00 +10°C° 0 mm 3 mps 742 mmHg 69%
    07:00 +12°C° 0 mm 3 mps 742 mmHg 66%
    08:00 +14°C° 0 mm 3 mps 742 mmHg 64%
    09:00 +17°C° 0 mm 3 mps 742 mmHg 60%
    10:00 +18°C° 0 mm 3 mps 741 mmHg 57%
    11:00 +20°C° 0 mm 4 mps 741 mmHg 53%
    12:00 +20°C° 0 mm 4 mps 741 mmHg 56%
    13:00 +20°C° 0 mm 4 mps 741 mmHg 58%
    14:00 +21°C° 0 mm 4 mps 740 mmHg 60%
    15:00 +20°C° 0.4 mm 3 mps 740 mmHg 66%
    16:00 +20°C° 0.4 mm 3 mps 740 mmHg 72%
    17:00 +20°C° 0.4 mm 3 mps 739 mmHg 79%
    18:00 +18°C° 0.5 mm 3 mps 739 mmHg 84%
    19:00 +17°C° 0.5 mm 3 mps 739 mmHg 89%
    20:00 +16°C° 0.5 mm 2 mps 738 mmHg 95%
    21:00 +16°C° 0.2 mm 3 mps 738 mmHg 95%
    22:00 +16°C° 0.2 mm 3 mps 738 mmHg 96%
    23:00 +14°C° 0.2 mm 3 mps 738 mmHg 97%

    25 May, Saturday

    Time Temperature Precipitation Wind Pressure Humidity
    00:00 +15°C° 0.1 mm 2 mps 737 mmHg 97%
    01:00 +15°C° 0.1 mm 2 mps 737 mmHg 98%
    02:00 +15°C° 0.1 mm 2 mps 737 mmHg 98%
    03:00 +15°C° 0 mm 2 mps 737 mmHg 98%
    04:00 +14°C° 0 mm 3 mps 736 mmHg 97%
    05:00 +14°C° 0 mm 3 mps 736 mmHg 97%
    06:00 +16°C° 0 mm 3 mps 736 mmHg 96%
    07:00 +16°C° 0 mm 3 mps 736 mmHg 95%
    08:00 +17°C° 0 mm 2 mps 736 mmHg 93%
    09:00 +18°C° 0.1 mm 2 mps 736 mmHg 86%
    10:00 +20°C° 0.1 mm 2 mps 735 mmHg 79%
    11:00 +23°C° 0.1 mm 2 mps 735 mmHg 72%
    12:00 +22°C° 0.6 mm 3 mps 735 mmHg 70%
    13:00 +24°C° 0.6 mm 3 mps 735 mmHg 69%
    14:00 +24°C° 0.6 mm 3 mps 735 mmHg 67%
    15:00 +22°C° 0.6 mm 3 mps 735 mmHg 71%
    16:00 +23°C° 0.6 mm 2 mps 734 mmHg 76%
    17:00 +21°C° 0.6 mm 2 mps 734 mmHg 80%
    18:00 +19°C° 0.2 mm 2 mps 734 mmHg 85%
    19:00 +18°C° 0.2 mm 2 mps 734 mmHg 90%
    20:00 +16°C° 0.2 mm 2 mps 734 mmHg 96%
    21:00 +16°C° 0.1 mm 2 mps 734 mmHg 96%
    22:00 +15°C° 0.1 mm 2 mps 734 mmHg 96%
    23:00 +13°C° 0.1 mm 3 mps 734 mmHg 96%

    26 May, Sunday

    Time Temperature Precipitation Wind Pressure Humidity
    00:00 +14°C° 0 mm 2 mps 734 mmHg 96%
    01:00 +14°C° 0 mm 2 mps 734 mmHg 95%
    02:00 +13°C° 0 mm 2 mps 734 mmHg 95%
    03:00 +13°C° 0 mm 2 mps 734 mmHg 95%
    04:00 +13°C° 0 mm 2 mps 734 mmHg 94%
    05:00 +13°C° 0 mm 2 mps 734 mmHg 94%
    06:00 +14°C° 0 mm 2 mps 735 mmHg 86%
    07:00 +15°C° 0 mm 2 mps 735 mmHg 78%
    08:00 +16°C° 0 mm 2 mps 735 mmHg 71%
    09:00 +17°C° 0 mm 3 mps 735 mmHg 64%
    10:00 +19°C° 0 mm 3 mps 735 mmHg 57%
    11:00 +20°C° 0 mm 3 mps 735 mmHg 50%
    12:00 +20°C° 0.5 mm 3 mps 735 mmHg 55%
    13:00 +20°C° 0.5 mm 4 mps 735 mmHg 60%
    14:00 +20°C° 0.5 mm 4 mps 735 mmHg 65%
    15:00 +20°C° 0.1 mm 4 mps 735 mmHg 62%
    16:00 +19°C° 0.1 mm 4 mps 735 mmHg 59%
    17:00 +19°C° 0.1 mm 4 mps 735 mmHg 56%
    18:00 +17°C° 0 mm 3 mps 735 mmHg 62%
    19:00 +14°C° 0 mm 3 mps 735 mmHg 68%
    20:00 +14°C° 0 mm 2 mps 736 mmHg 74%
    21:00 +13°C° 0 mm 2 mps 736 mmHg 79%
    22:00 +12°C° 0 mm 2 mps 736 mmHg 84%
    23:00 +10°C° 0 mm 2 mps 736 mmHg 89%
    Show more